Weather observations for the past three days for
Myrtle Beach International Airport
Imperial (Metric)
Date Time (edt) Wind (mph) Vis. (mi.) Weather Sky Cond. Temperature (ºF) Relative Humidity Wind Chill (°F) Heat Index (°F) Pressure Precipitation (in)
Air Dwpt 6 hour altimeter (in) sea level (mb) 1 hr 3 hr 6 hr
Max. Min.
20 19:56 SW 10 8.00 Light Rain OVC100 81 81 87.1 81 100% 91 30.08 1018.6 0.07 0.07
20 18:56 S 17 10.00 Light Rain FEW060 BKN100 OVC120 82 82 100% 95 30.07 1018.0
20 17:56 S 14 10.00 Fair CLR 84 81 91% 98 30.06 1017.8
20 16:56 S 16 10.00 Fair CLR 87.1 81 82% 104 30.06 1018.0
20 15:56 S 15 10.00 Fair CLR 86 81 85% 102 30.08 1018.6
20 14:56 S 15 10.00 A Few Clouds FEW075 87.1 82 85% 106 30.1 1019.1
20 13:56 S 13 10.00 Overcast FEW031 BKN039 OVC048 86 81 87.1 79 85% 102 30.11 1019.5
20 12:56 SE 12 10.00 Mostly Cloudy BKN034 BKN045 BKN055 84.9 81 88% 100 30.13 1020.2
20 11:56 S 10 10.00 Mostly Cloudy BKN030 BKN035 84.9 80.1 85% 99 30.13 1020.2
20 10:56 SW 10 10.00 Mostly Cloudy FEW026 BKN033 86 77 75% 97 30.14 1020.5
20 09:56 SW 8 10.00 Mostly Cloudy BKN020 BKN026 84 78.1 82% 95 30.15 1020.8
20 08:56 W 9 10.00 Partly Cloudy FEW002 SCT017 82 78.1 88% 91 30.14 1020.6
20 07:56 SW 5 10.00 A Few Clouds FEW055 79 77 79 75.9 94% 83 30.13 1020.1
20 06:56 SW 3 10.00 Fair CLR 75.9 75.9 100% 75 30.11 1019.6
20 05:56 Calm 10.00 Fair CLR 75.9 75.9 100% 75 30.1 1019.3
20 04:56 SW 5 10.00 Fair CLR 75.9 75.9 100% 75 30.08 1018.7
20 03:56 Calm 10.00 Fair CLR 75.9 75.9 100% 75 30.08 1018.7
20 02:56 Calm 10.00 A Few Clouds FEW045 77 77 100% 78 30.09 1019.0
20 01:56 Calm 10.00 Fair CLR 77 77 82.9 77 100% 78 30.11 1019.4 0.04
20 00:56 NW 6 10.00 A Few Clouds FEW010 78.1 78.1 100% 81 30.11 1019.4
19 23:56 W 8 10.00 Light Rain BKN010 BKN017 BKN024 80.1 80.1 100% 87 30.1 1019.3
19 22:56 Vrbl 6 10.00 Fair CLR 81 81 100% 91 30.09 1018.9 0.04
19 21:56 SW 7 10.00 Thunderstorm BKN012 OVC019 82 82 100% 95 30.11 1019.6
19 20:56 S 10 7.00 Light Rain BKN014 BKN021 OVC049 82 82 100% 95 30.08 1018.7 0.04
19 19:56 S 9 10.00 Mostly Cloudy BKN016 82 80.1 86 77 94% 93 30.08 1018.4 0.2
19 18:56 S 9 10.00 A Few Clouds FEW013 82 80.1 94% 93 30.06 1017.8
19 17:56 S 12 10.00 A Few Clouds FEW013 82.9 80.1 91% 95 30.05 1017.5
19 16:56 S 7 10.00 Light Rain FEW027 BKN090 80.1 78.1 94% 86 30.05 1017.6 0.19 0.2
19 15:56 S 12 8.00 Thunderstorm Light Rain SCT014 SCT046 BKN070 80.1 80.1 100% 87 30.07 1018.1 0.01
19 14:56 S 12 10.00 Light Rain BKN015 BKN031 84.9 81 88% 100 30.07 1018.1
19 13:56 S 10 10.00 Overcast BKN028 OVC037 84 78.1 84.9 77 82% 95 30.09 1018.9
19 12:56 S 8 10.00 Mostly Cloudy BKN025 BKN070 84.9 78.1 80% 97 30.1 1019.3
19 11:56 SW 9 10.00 Mostly Cloudy FEW026 BKN070 84 75.9 77% 93 30.11 1019.4
19 10:56 S 7 10.00 Fair CLR 82.9 77 82% 92 30.11 1019.5
19 09:56 NW 3 10.00 Fair CLR 80.1 77 90% 86 30.09 1019.0
19 08:56 Calm 10.00 Fair CLR 80.1 77 90% 86 30.09 1018.9
19 07:56 N 3 10.00 Mostly Cloudy BKN023 77 77 77 73 100% 78 30.07 1018.4
19 06:56 N 5 10.00 Mostly Cloudy BKN023 73.4 0 0% 30.06 1017.8
19 05:56 NW 5 10.00 Mostly Cloudy BKN021 73.4 0 0% 30.04 1017.1
19 04:56 NW 3 10.00 A Few Clouds FEW065 73.4 0 0% 30.02 1016.6
19 03:56 Calm 10.00 Fair CLR 73.4 0 0% 30.01 1016.0
19 02:56 Calm 10.00 Partly Cloudy SCT029 73.9 73.9 100% 30.02 1016.4
19 01:56 Calm 10.00 Partly Cloudy SCT031 73 73 84.9 73 100% 30.03 1016.8 0.06
19 00:56 Calm 10.00 Fair CLR 73 73 100% 30.05 1017.4
18 23:56 NW 10 10.00 Mostly Cloudy FEW013 BKN070 BKN080 73 73 100% 30.06 1017.7 0.06
18 22:56 NW 17 G 30 5.00 Light Rain Fog/Mist FEW015 BKN024 OVC060 75.9 75 97% 75 30.06 1017.8
18 21:56 SW 12 10.00 Fair CLR 84 78.1 82% 95 30.02 1016.4
18 20:56 S 12 10.00 Fair CLR 84 78.1 82% 95 29.98 1015.1
18 19:56 S 16 G 23 10.00 Fair CLR 84.9 81 88 84 88% 100 29.96 1014.5
18 18:56 S 20 G 25 10.00 Fair CLR 84 81 91% 98 29.95 1014.0
18 17:56 S 21 G 30 10.00 Fair and Breezy CLR 86 80.1 83% 101 29.93 1013.5
18 16:56 S 24 G 32 10.00 Fair and Breezy CLR 87.1 79 77% 101 29.95 1014.1
18 15:56 S 20 G 26 10.00 Fair CLR 88 79 75% 103 29.97 1014.9
18 11:56 SW 10 10.00 Fair CLR 86 75.9 72% 96 30.04 1017.0
18 10:56 SW 9 10.00 Fair CLR 86 75.9 72% 96 30.03 1016.8
18 09:56 W 13 10.00 Fair CLR 84.9 75.9 75% 94 30.03 1016.8
18 08:56 SW 12 10.00 Fair CLR 82 75 79% 89 30.03 1016.7
18 07:56 W 8 10.00 Fair CLR 79 75.9 79 77 90% 83 30.03 1016.8
18 06:56 W 8 10.00 Fair CLR 78.1 75.9 93% 81 30.02 1016.4
18 05:56 SW 6 10.00 Fair CLR 77 75.9 96% 78 30 1015.8
18 04:56 SW 7 10.00 Fair CLR 78.1 75.9 93% 81 29.99 1015.6
18 03:56 S 8 10.00 Fair CLR 79 75.9 90% 83 29.98 1015.2
18 02:56 S 8 10.00 Fair CLR 79 78.1 97% 83 29.99 1015.6
18 01:56 SW 6 10.00 Fair CLR 77 77 84 73.9 100% 78 29.99 1015.6 0.14
18 00:56 Calm 10.00 Fair CLR 75 75 100% 72 30 1016.0
17 23:56 Calm 10.00 Partly Cloudy SCT070 75 75 100% 72 30.02 1016.4 0.05
17 22:56 Vrbl 5 7.00 Thunderstorm Light Rain FEW028 BKN070 OVC100 75 73.9 96% 73 30.04 1017.0 0.09 0.09
17 21:56 SW 12 10.00 Fair CLR 84 80.1 88% 97 30.01 1016.3
Date Time (edt) Wind (mph) Vis. (mi.) Weather Sky Cond. Air Dwpt Max. Min. Relative Humidity Wind Chill (°F) Heat Index (°F) altimeter (in) sea level (mb) 1 hr 3 hr 6 hr
6 hour
Temperature (ºF) Pressure Precipitation (in)